This is the latest recevied weather packets stored in our database for station/object VE8SKI. If no packets are shown the sender has not sent any weather packets the latest 10 day(s).
| Time | Temp. | Humidity | Pressure | Rain* | Wind** | Luminosity | Snow |
|---|---|---|---|---|---|---|---|
| 1777512655 | 10.56° C | 47% | 1014.2 hPa | 0 mm | 1.79 m/s, 115° | - | - |
| 1777512355 | 10.56° C | 48% | 1014.2 hPa | 0 mm | 1.34 m/s, 211° | - | - |
| 1777512053 | 10.56° C | 48% | 1014.2 hPa | 0 mm | 1.79 m/s, 153° | - | - |
| 1777511754 | 10.56° C | 47% | 1014.2 hPa | 0 mm | 1.34 m/s, 179° | - | - |
| 1777511454 | 10.56° C | 46% | 1014.2 hPa | 0 mm | 0.89 m/s, 150° | - | - |
| 1777511155 | 11.11° C | 46% | 1014.3 hPa | 0 mm | 1.79 m/s, 156° | - | - |
| 1777510855 | 11.11° C | 46% | 1014.3 hPa | 0 mm | 1.79 m/s, 98° | - | - |
| 1777510556 | 10.56° C | 47% | 1014.4 hPa | 0 mm | 1.79 m/s, 148° | - | - |
| 1777510254 | 10° C | 48% | 1014.3 hPa | 0 mm | 1.34 m/s, 93° | - | - |
| 1777509954 | 10° C | 48% | 1014.2 hPa | 0 mm | 0.89 m/s, 136° | - | - |
| 1777509655 | 10° C | 48% | 1014.1 hPa | 0 mm | 1.34 m/s, 287° | - | - |
| 1777509355 | 10° C | 49% | 1014.1 hPa | 0 mm | 0 m/s | - | - |
| 1777509056 | 9.44° C | 49% | 1014.2 hPa | 0 mm | 0.89 m/s, 181° | - | - |
| 1777508756 | 9.44° C | 48% | 1014 hPa | 0 mm | 0.89 m/s, 90° | - | - |
| 1777508454 | 9.44° C | 49% | 1014 hPa | 0 mm | 0.89 m/s, 163° | - | - |
| 1777508155 | 9.44° C | 49% | 1014.1 hPa | 0 mm | 0.89 m/s, 158° | - | - |
| 1777507855 | 9.44° C | 49% | 1014 hPa | 0 mm | 1.34 m/s, 249° | - | - |
| 1777507556 | 9.44° C | 49% | 1014 hPa | 0 mm | 1.34 m/s, 218° | - | - |
| 1777507256 | 9.44° C | 48% | 1014 hPa | 0 mm | 2.24 m/s, 239° | - | - |
| 1777506956 | 9.44° C | 48% | 1014 hPa | 0 mm | 1.79 m/s, 181° | - | - |
| 1777506654 | 9.44° C | 48% | 1013.9 hPa | 0 mm | 2.68 m/s, 150° | - | - |
| 1777506355 | 9.44° C | 48% | 1013.9 hPa | 0 mm | 1.79 m/s, 207° | - | - |
| 1777506055 | 9.44° C | 47% | 1013.8 hPa | 0 mm | 2.24 m/s, 238° | - | - |
| 1777505756 | 9.44° C | 48% | 1013.8 hPa | 0 mm | 2.24 m/s, 205° | - | - |
| 1777505456 | 9.44° C | 48% | 1013.9 hPa | 0 mm | 1.79 m/s, 248° | - | - |
* Rain latest hour (hover to see other rain measurements)
** Current wind speed in m/s (hover to see current wind gust speed)